GW2918 Weather Reports


time (UTC)temp
F
wind
direction
speed
knots
gust
knots
rain 1hr
in
rain 24hr
in
rain mn
in
humidity
%
barometer
mb
20240614115131 64 133 0.9 2.6 0.00 0.00 0.00 91 1014.1
20240614114130 64 132 1.7 2.6 0.00 0.00 0.00 90 1013.6
20240614113130 65 150 2.6 3.5 0.00 0.00 0.00 88 1014.0
20240614112130 66 143 1.7 4.3 0.00 0.00 0.00 84 1013.8
20240614111130 67 144 3.5 3.5 0.00 0.00 0.00 81 1013.5
20240614110128 67 172 3.5 4.3 0.00 0.00 0.00 82 1013.3
20240614105128 67 160 1.7 4.3 0.00 0.00 0.00 85 1013.3
20240614104126 67 139 0.9 3.5 0.00 0.00 0.00 85 1013.1
20240614103125 67 134 0.9 3.5 0.00 0.00 0.00 85 1013.0
20240614102125 67 158 0.0 2.6 0.00 0.00 0.00 85 1013.1
20240614101124 66 138 2.6 3.5 0.00 0.00 0.00 88 1013.2
20240614100124 66 170 2.6 3.5 0.00 0.00 0.00 91 1013.2
20240614095123 66 125 0.9 2.6 0.00 0.00 0.00 93 1013.1
20240614094121 66 174 1.7 2.6 0.00 0.00 0.00 93 1012.7
20240614093120 66 171 2.6 4.3 0.00 0.00 0.00 93 1012.9
20240614092119 66 165 1.7 3.5 0.00 0.00 0.00 93 1012.8
20240614091118 66 142 1.7 2.6 0.00 0.00 0.00 95 1012.6
20240614090116 66 130 3.5 3.5 0.00 0.00 0.00 95 1012.8
20240614085116 66 135 1.7 4.3 0.00 0.00 0.00 95 1012.9
20240614084116 66 170 1.7 5.2 0.00 0.00 0.00 95 1013.0
20240614083116 66 156 0.0 2.6 0.00 0.00 0.00 96 1012.8
20240614082114 67 172 3.5 5.2 0.00 0.00 0.00 95 1012.8
20240614081113 67 168 4.3 6.1 0.00 0.00 0.00 95 1012.7
20240614080113 67 154 0.9 3.5 0.00 0.00 0.00 95 1012.9
20240614075113 67 138 1.7 6.1 0.00 0.00 0.00 96 1012.9
20240614074111 67 181 3.5 6.1 0.00 0.00 0.00 95 1013.1
20240614073111 67 157 1.7 6.1 0.00 0.00 0.00 95 1013.2
20240614072111 68 144 3.5 5.2 0.00 0.00 0.00 94 1013.0
20240614071110 68 190 4.3 5.2 0.00 0.00 0.00 94 1013.2
20240614070110 68 151 4.3 4.3 0.00 0.00 0.00 94 1013.1
20240614065108 68 162 3.5 5.2 0.00 0.00 0.00 93 1013.2
20240614064107 68 175 2.6 3.5 0.00 0.00 0.00 93 1013.2
20240614063107 68 180 4.3 7.8 0.00 0.00 0.00 93 1013.4
20240614062108 68 141 2.6 5.2 0.00 0.00 0.00 92 1013.4
20240614061108 68 140 3.5 6.1 0.00 0.00 0.00 92 1013.5
20240614060108 69 153 3.5 6.1 0.00 0.00 0.00 91 1013.4
20240614055108 68 147 4.3 7.8 0.00 0.00 0.00 91 1013.5
20240614054106 68 142 2.6 6.1 0.00 0.00 0.00 91 1013.6
20240614053106 68 193 1.7 5.2 0.00 0.00 0.00 90 1013.8
20240614052106 68 148 0.9 4.3 0.00 0.00 0.00 89 1013.8
20240614051106 68 153 1.7 4.3 0.00 0.00 0.00 88 1013.8
20240614050105 68 156 1.7 5.2 0.00 0.00 0.00 87 1014.0
20240614045104 69 130 2.6 5.2 0.00 0.00 0.00 85 1013.9
20240614044103 70 171 2.6 7.8 0.00 0.00 0.00 84 1013.8
20240614043101 69 142 3.5 5.2 0.00 0.00 0.00 83 1013.9
20240614042100 69 129 2.6 3.5 0.00 0.00 0.00 80 1014.0
20240614041101 69 159 3.5 7.8 0.00 0.00 0.00 77 1014.1
20240614040100 69 150 1.7 5.2 0.00 0.00 0.00 76 1014.1
20240614035059 68 154 2.6 4.3 0.00 0.00 0.00 77 1014.6
20240614034058 69 148 1.7 3.5 0.00 0.00 0.00 77 1014.5
20240614033059 69 148 2.6 2.6 0.00 0.00 0.00 76 1014.7
20240614032058 69 141 0.0 1.7 0.00 0.00 0.00 76 1014.8
20240614031057 69 167 2.6 3.5 0.00 0.00 0.00 76 1014.8
20240614030055 70 151 0.9 1.7 0.00 0.00 0.00 76 1014.8
20240614025055 70 127 0.9 1.7 0.00 0.00 0.00 74 1014.8
20240614024055 71 144 1.7 3.5 0.00 0.00 0.00 73 1014.9
20240614023053 71 158 1.7 2.6 0.00 0.00 0.00 73 1015.1
20240614022052 71 154 4.3 4.3 0.00 0.00 0.00 73 1015.1
20240614021052 71 149 1.7 5.2 0.00 0.00 0.00 72 1014.8
20240614020051 71 138 2.6 4.3 0.00 0.00 0.00 73 1014.7
20240614015051 71 161 3.5 4.3 0.00 0.00 0.00 72 1014.7
20240614014049 71 154 3.5 4.3 0.00 0.00 0.00 72 1014.5
20240614013048 71 147 3.5 3.5 0.00 0.00 0.00 72 1014.5
20240614012046 71 172 3.5 5.2 0.00 0.00 0.00 70 1014.5
20240614011046 72 177 2.6 4.3 0.00 0.00 0.00 70 1014.5
20240614010044 72 153 3.5 3.5 0.00 0.00 0.00 68 1014.5
20240614005043 73 182 3.5 3.5 0.00 0.00 0.00 66 1014.4
20240614004041 73 151 0.9 2.6 0.00 0.00 0.00 67 1014.3
20240614003041 73 157 1.7 2.6 0.00 0.00 0.00 65 1014.4
20240614002039 73 164 1.7 2.6 0.00 0.00 0.00 64 1014.5
20240614001038 74 167 1.7 1.7 0.00 0.00 0.00 63 1014.5
20240614000036 75 158 1.7 2.6 0.00 0.00 0.00 60 1014.3
20240613235035 75 157 3.5 4.3 0.00 0.00 0.00 58 1014.6
20240613234034 76 148 1.7 6.1 0.00 0.00 0.00 58 1014.6
20240613233034 77 191 2.6 7.0 0.00 0.00 0.00 56 1014.7
20240613232033 78 177 4.3 4.3 0.00 0.00 0.00 54 1015.0
20240613231031 78 168 0.9 3.5 0.00 0.00 0.00 52 1015.2
20240613230030 78 126 2.6 4.3 0.00 0.00 0.00 52 1015.1
20240613225028 78 184 2.6 4.3 0.00 0.00 0.00 49 1015.2
20240613224028 78 151 1.7 1.7 0.00 0.00 0.00 49 1015.1
20240613223027 78 201 3.5 6.1 0.00 0.00 0.00 47 1015.2
20240613222026 79 158 1.7 3.5 0.00 0.00 0.00 46 1015.4
20240613221026 79 199 3.5 5.2 0.00 0.00 0.00 46 1015.5
20240613220025 79 177 4.3 6.1 0.00 0.00 0.00 46 1015.4
20240613215023 79 157 0.9 4.3 0.00 0.00 0.00 46 1015.5
20240613214023 79 147 1.7 5.2 0.00 0.00 0.00 47 1015.2
20240613213023 79 144 3.5 3.5 0.00 0.00 0.00 46 1015.2
20240613212022 79 148 1.7 5.2 0.00 0.00 0.00 49 1015.4
20240613211022 80 159 3.5 3.5 0.00 0.00 0.00 46 1015.2
20240613210022 79 170 3.5 6.1 0.00 0.00 0.00 49 1015.1
20240613205021 79 186 5.2 5.2 0.00 0.00 0.00 46 1015.1
20240613204020 79 175 5.2 7.8 0.00 0.00 0.00 49 1015.0
20240613203020 79 172 3.5 10.4 0.00 0.00 0.00 45 1015.0
20240613202020 80 194 4.3 4.3 0.00 0.00 0.00 49 1015.3
20240613201018 79 150 3.5 7.8 0.00 0.00 0.00 46 1015.2
20240613200018 80 174 1.7 4.3 0.00 0.00 0.00 46 1015.4
20240613195016 79 149 4.3 9.6 0.00 0.00 0.00 46 1015.4
20240613194016 80 207 4.3 9.6 0.00 0.00 0.00 46 1015.5
20240613193015 79 184 5.2 5.2 0.00 0.00 0.00 45 1015.7
20240613192014 80 155 1.7 5.2 0.00 0.00 0.00 49 1015.8
20240613191012 78 179 1.7 7.0 0.00 0.00 0.00 46 1016.0
20240613190012 78 172 3.5 7.0 0.00 0.00 0.00 51 1015.7
20240613185011 79 160 1.7 3.5 0.00 0.00 0.00 46 1015.8
20240613184009 79 144 1.7 5.2 0.00 0.00 0.00 47 1016.0
20240613183009 78 175 4.3 7.8 0.00 0.00 0.00 46 1016.1
20240613182008 77 158 2.6 7.8 0.00 0.00 0.00 48 1016.5
20240613181008 78 147 3.5 5.2 0.00 0.00 0.00 47 1016.5
20240613180009 78 356 0.0 6.1 0.00 0.00 0.00 52 1016.7
20240613175007 77 182 5.2 8.7 0.00 0.00 0.00 47 1016.7
20240613174007 79 185 3.5 3.5 0.00 0.00 0.00 49 1016.9
20240613173008 78 189 1.7 6.1 0.00 0.00 0.00 53 1016.8
20240613172006 77 191 4.3 10.4 0.00 0.00 0.00 48 1016.8
20240613171005 77 181 2.6 6.1 0.00 0.00 0.00 49 1016.9
20240613170005 77 214 7.0 7.8 0.00 0.00 0.00 48 1016.9
20240613165002 75 141 1.7 11.3 0.00 0.00 0.00 50 1017.1
20240613164000 76 142 1.7 2.6 0.00 0.00 0.00 53 1016.9
20240613163000 76 191 4.3 11.3 0.00 0.00 0.00 50 1017.1
20240613161959 76 154 1.7 6.1 0.00 0.00 0.00 55 1017.2
20240613160958 75 146 4.3 9.6 0.00 0.00 0.00 51 1017.1
20240613155959 76 184 1.7 4.3 0.00 0.00 0.00 51 1017.2
20240613154958 75 159 3.5 7.0 0.00 0.00 0.00 54 1017.1
20240613153956 75 148 2.6 6.1 0.00 0.00 0.00 56 1017.1
20240613152956 75 168 5.2 10.4 0.00 0.00 0.00 55 1017.2
20240613151955 77 179 1.7 5.2 0.00 0.00 0.00 53 1017.2
20240613150953 76 189 1.7 6.1 0.00 0.00 0.00 55 1017.1
20240613145953 76 153 2.6 3.5 0.00 0.00 0.00 56 1017.1
20240613144952 76 229 3.5 4.3 0.00 0.00 0.00 56 1017.2
20240613143952 75 168 1.7 5.2 0.00 0.00 0.00 58 1017.1
20240613142950 75 208 0.9 3.5 0.00 0.00 0.00 62 1017.3
20240613141950 74 222 3.5 5.2 0.00 0.00 0.00 57 1017.5
20240613140949 74 147 2.6 5.2 0.00 0.00 0.00 58 1017.1
20240613135947 73 188 2.6 5.2 0.00 0.00 0.00 60 1017.5
20240613134947 71 209 2.6 6.1 0.00 0.00 0.00 63 1017.4
20240613133945 71 272 0.9 4.3 0.00 0.00 0.00 65 1017.6
20240613132944 71 193 3.5 4.3 0.00 0.00 0.00 64 1017.8
20240613131944 70 187 2.6 4.3 0.00 0.00 0.00 64 1017.5
20240613130944 69 175 2.6 4.3 0.00 0.00 0.00 67 1017.8
20240613125942 68 202 3.5 4.3 0.00 0.00 0.00 67 1017.6
20240613124942 69 147 0.9 3.5 0.00 0.00 0.00 67 1017.7
20240613123941 69 191 3.5 3.5 0.00 0.00 0.00 66 1017.6
20240613122939 67 152 0.0 3.5 0.00 0.00 0.00 70 1017.6
20240613121939 66 139 2.6 5.2 0.00 0.00 0.00 70 1017.8
20240613120939 65 206 3.5 4.3 0.00 0.00 0.00 71 1017.5
20240613115937 64 183 0.0 2.6 0.00 0.00 0.00 75 1017.9